This is the latest recevied weather packets stored in our database for station/object OE-11344. If no packets are shown the sender has not sent any weather packets the latest 10 day(s).
| Time | Temp. | Humidity | Pressure | Rain* | Wind** | Luminosity | Snow |
|---|---|---|---|---|---|---|---|
| 1788159313 | 56° F | 84% | 640.8 mmHg | 0 in | - | 205 W/m² | - |
| 1788158486 | 54° F | 87% | 640.9 mmHg | 0 in | - | 60 W/m² | - |
| 1788158112 | 55° F | 84% | 641.1 mmHg | 0 in | - | 24 W/m² | - |
| 1788157512 | 54° F | 84% | 641.2 mmHg | 0 in | - | 12 W/m² | - |
| 1788156685 | 54° F | 87% | 641.2 mmHg | 0 in | - | 6 W/m² | - |
| 1788156313 | 54° F | 88% | 641.1 mmHg | 0 in | - | 12 W/m² | - |
| 1788155713 | 54° F | 87% | 640.9 mmHg | 0 in | - | 12 W/m² | - |
| 1788154886 | 53° F | 88% | 640.9 mmHg | 0 in | - | 12 W/m² | - |
| 1788154512 | 53° F | 89% | 640.8 mmHg | 0 in | - | 0 W/m² | - |
| 1788153912 | 54° F | 86% | 640.7 mmHg | 0 in | - | 6 W/m² | - |
| 1788153085 | 53° F | 87% | 640.7 mmHg | 0 in | - | 6 W/m² | - |
| 1788152713 | 53° F | 88% | 640.4 mmHg | 0 in | - | 6 W/m² | - |
| 1788152112 | 53° F | 88% | 640.1 mmHg | 0 in | - | 6 W/m² | - |
| 1788151285 | 53° F | 84% | 639.8 mmHg | 0 in | - | 0 W/m² | - |
| 1788150913 | 53° F | 84% | 639.7 mmHg | 0 in | - | 0 W/m² | - |
| 1788150313 | 54° F | 84% | 639.7 mmHg | 0 in | - | 0 W/m² | - |
| 1788149724 | 54° F | 85% | 639.6 mmHg | 0 in | - | 0 W/m² | - |
| 1788149113 | 54° F | 87% | 639.7 mmHg | 0 in | - | 0 W/m² | - |
| 1788148512 | 54° F | 86% | 639.7 mmHg | 0 in | - | 0 W/m² | - |
| 1788147913 | 54° F | 85% | 639.8 mmHg | 0 in | - | 0 W/m² | - |
| 1788147313 | 54° F | 87% | 639.8 mmHg | 0 in | - | 0 W/m² | - |
| 1788146713 | 55° F | 86% | 639.9 mmHg | 0 in | - | 0 W/m² | - |
| 1788145885 | 55° F | 84% | 640 mmHg | 0 in | - | 0 W/m² | - |
| 1788145512 | 54° F | 86% | 640 mmHg | 0 in | - | 0 W/m² | - |
| 1788144912 | 54° F | 85% | 640 mmHg | 0 in | - | 0 W/m² | - |
* Rain latest hour (hover to see other rain measurements)
** Current wind speed in m/s (hover to see current wind gust speed)